owner,sensor,date,latitude,longitude,vertical_datum,sea_water_practical_salinity,qcFlag 
SCCF RECON,ioos:station:SCCF:51:1,2009-03-01T00:00:00Z,26.5545,-82.1715,1.646,35.46,1111122 
SCCF RECON,ioos:station:SCCF:51:1,2009-03-01T01:00:00Z,26.5545,-82.1715,1.54,35.33,1111122 
SCCF RECON,ioos:station:SCCF:51:1,2009-03-01T02:00:00Z,26.5545,-82.1715,1.457,34.91,1111122 
SCCF RECON,ioos:station:SCCF:51:1,2009-03-01T03:00:00Z,26.5545,-82.1715,1.415,34.95,1111122 
SCCF RECON,ioos:station:SCCF:51:1,2009-03-01T04:00:00Z,26.5545,-82.1715,1.457,34.98,1111122 
SCCF RECON,ioos:station:SCCF:51:1,2009-03-01T05:00:00Z,26.5545,-82.1715,1.542,35.52,1111122 
SCCF RECON,ioos:station:SCCF:51:1,2009-03-01T06:00:00Z,26.5545,-82.1715,1.661,35.43,1111122 
SCCF RECON,ioos:station:SCCF:51:1,2009-03-01T07:00:00Z,26.5545,-82.1715,1.778,35.52,1111122 
SCCF RECON,ioos:station:SCCF:51:1,2009-03-01T08:00:00Z,26.5545,-82.1715,1.837,35.25,1111122 
SCCF RECON,ioos:station:SCCF:51:1,2009-03-01T09:00:00Z,26.5545,-82.1715,1.866,35.63,1111122 
SCCF RECON,ioos:station:SCCF:51:1,2009-03-01T10:00:00Z,26.5545,-82.1715,1.847,35.44,1111122 
SCCF RECON,ioos:station:SCCF:51:1,2009-03-01T11:00:00Z,26.5545,-82.1715,1.783,35.19,1111122 
SCCF RECON,ioos:station:SCCF:51:1,2009-03-01T12:00:00Z,26.5545,-82.1715,1.708,35.08,1111122 
SCCF RECON,ioos:station:SCCF:51:1,2009-03-01T13:00:00Z,26.5545,-82.1715,1.651,34.86,1111122 
SCCF RECON,ioos:station:SCCF:51:1,2009-03-01T14:00:00Z,26.5545,-82.1715,1.649,34.88,1111122 
SCCF RECON,ioos:station:SCCF:51:1,2009-03-01T15:00:00Z,26.5545,-82.1715,1.711,35.01,1111122 
SCCF RECON,ioos:station:SCCF:51:1,2009-03-01T16:00:00Z,26.5545,-82.1715,1.834,35.32,1111122 
SCCF RECON,ioos:station:SCCF:51:1,2009-03-01T17:00:00Z,26.5545,-82.1715,1.881,35.66,1111122 
SCCF RECON,ioos:station:SCCF:51:1,2009-03-01T18:00:00Z,26.5545,-82.1715,1.912,35.59,1111122 
SCCF RECON,ioos:station:SCCF:51:1,2009-03-01T19:00:00Z,26.5545,-82.1715,1.947,35.64,1111122 
SCCF RECON,ioos:station:SCCF:51:1,2009-03-01T20:00:00Z,26.5545,-82.1715,1.958,35.71,1111122 
SCCF RECON,ioos:station:SCCF:51:1,2009-03-01T21:00:00Z,26.5545,-82.1715,1.907,35.73,1111122 
SCCF RECON,ioos:station:SCCF:51:1,2009-03-01T22:00:00Z,26.5545,-82.1715,1.852,35.73,1111122 
SCCF RECON,ioos:station:SCCF:51:1,2009-03-01T23:00:00Z,26.5545,-82.1715,1.775,35.78,1111122 
SCCF RECON,ioos:station:SCCF:51:1,2009-03-02T00:00:00Z,26.5545,-82.1715,1.696,35.82,1111122 
SCCF RECON,ioos:station:SCCF:51:1,2009-03-02T01:00:00Z,26.5545,-82.1715,1.588,35.78,1111122 
SCCF RECON,ioos:station:SCCF:51:1,2009-03-02T02:00:00Z,26.5545,-82.1715,1.483,35.81,1111122 
SCCF RECON,ioos:station:SCCF:51:1,2009-03-02T03:00:00Z,26.5545,-82.1715,1.389,35.84,1111122 
SCCF RECON,ioos:station:SCCF:51:1,2009-03-02T04:00:00Z,26.5545,-82.1715,1.373,35.88,1111122 
SCCF RECON,ioos:station:SCCF:51:1,2009-03-02T05:00:00Z,26.5545,-82.1715,1.409,35.94,1111122 
SCCF RECON,ioos:station:SCCF:51:1,2009-03-02T06:00:00Z,26.5545,-82.1715,1.462,36.04,1111122 
SCCF RECON,ioos:station:SCCF:51:1,2009-03-02T07:00:00Z,26.5545,-82.1715,1.51,35.98,1111122 
SCCF RECON,ioos:station:SCCF:51:1,2009-03-02T08:00:00Z,26.5545,-82.1715,1.516,36.03,1111122 
SCCF RECON,ioos:station:SCCF:51:1,2009-03-02T09:00:00Z,26.5545,-82.1715,1.501,36.03,1111122 
SCCF RECON,ioos:station:SCCF:51:1,2009-03-02T10:00:00Z,26.5545,-82.1715,1.492,36.03,1111122 
SCCF RECON,ioos:station:SCCF:51:1,2009-03-02T11:00:00Z,26.5545,-82.1715,1.482,35.95,1111122 
SCCF RECON,ioos:station:SCCF:51:1,2009-03-02T12:00:00Z,26.5545,-82.1715,1.465,35.91,1111122 
SCCF RECON,ioos:station:SCCF:51:1,2009-03-02T13:00:00Z,26.5545,-82.1715,1.47,35.92,1111122 
SCCF RECON,ioos:station:SCCF:51:1,2009-03-02T14:00:00Z,26.5545,-82.1715,1.482,35.93,1111122 
SCCF RECON,ioos:station:SCCF:51:1,2009-03-02T15:00:00Z,26.5545,-82.1715,1.529,35.91,1111122 
SCCF RECON,ioos:station:SCCF:51:1,2009-03-02T16:00:00Z,26.5545,-82.1715,1.583,35.88,1111122 
SCCF RECON,ioos:station:SCCF:51:1,2009-03-02T17:00:00Z,26.5545,-82.1715,1.647,35.91,1111122 
SCCF RECON,ioos:station:SCCF:51:1,2009-03-02T18:00:00Z,26.5545,-82.1715,1.718,36.01,1111122 
SCCF RECON,ioos:station:SCCF:51:1,2009-03-02T19:00:00Z,26.5545,-82.1715,1.802,35.72,1111122 
SCCF RECON,ioos:station:SCCF:51:1,2009-03-02T20:00:00Z,26.5545,-82.1715,1.884,35.73,1111122 
SCCF RECON,ioos:station:SCCF:51:1,2009-03-02T21:00:00Z,26.5545,-82.1715,1.933,35.71,1111122 
SCCF RECON,ioos:station:SCCF:51:1,2009-03-02T22:00:00Z,26.5545,-82.1715,1.904,35.71,1111122 
SCCF RECON,ioos:station:SCCF:51:1,2009-03-02T23:00:00Z,26.5545,-82.1715,1.833,35.75,1111122 
SCCF RECON,ioos:station:SCCF:51:1,2009-03-03T00:00:00Z,26.5545,-82.1715,1.729,35.9,1111122 
SCCF RECON,ioos:station:SCCF:51:1,2009-03-03T01:00:00Z,26.5545,-82.1715,1.634,35.89,1111122 
SCCF RECON,ioos:station:SCCF:51:1,2009-03-03T02:00:00Z,26.5545,-82.1715,1.54,35.77,1111122 
SCCF RECON,ioos:station:SCCF:51:1,2009-03-03T03:00:00Z,26.5545,-82.1715,1.451,35.82,1111122 
SCCF RECON,ioos:station:SCCF:51:1,2009-03-03T04:00:00Z,26.5545,-82.1715,1.382,35.89,1111122 
SCCF RECON,ioos:station:SCCF:51:1,2009-03-03T05:00:00Z,26.5545,-82.1715,1.336,35.92,1111122 
SCCF RECON,ioos:station:SCCF:51:1,2009-03-03T06:00:00Z,26.5545,-82.1715,1.345,35.92,1111122 
SCCF RECON,ioos:station:SCCF:51:1,2009-03-03T07:00:00Z,26.5545,-82.1715,1.388,35.94,1111122 
SCCF RECON,ioos:station:SCCF:51:1,2009-03-03T08:00:00Z,26.5545,-82.1715,1.458,35.89,1111122 
SCCF RECON,ioos:station:SCCF:51:1,2009-03-03T09:00:00Z,26.5545,-82.1715,1.526,35.92,1111122 
SCCF RECON,ioos:station:SCCF:51:1,2009-03-03T10:00:00Z,26.5545,-82.1715,1.583,35.86,1111122 
SCCF RECON,ioos:station:SCCF:51:1,2009-03-03T11:00:00Z,26.5545,-82.1715,1.625,35.8,1111122 
SCCF RECON,ioos:station:SCCF:51:1,2009-03-03T12:00:00Z,26.5545,-82.1715,1.629,35.86,1111122 
SCCF RECON,ioos:station:SCCF:51:1,2009-03-03T13:00:00Z,26.5545,-82.1715,1.602,35.95,1111122 
SCCF RECON,ioos:station:SCCF:51:1,2009-03-03T14:00:00Z,26.5545,-82.1715,1.575,35.95,1111122 
SCCF RECON,ioos:station:SCCF:51:1,2009-03-03T15:00:00Z,26.5545,-82.1715,1.595,35.98,1111122 
SCCF RECON,ioos:station:SCCF:51:1,2009-03-03T16:00:00Z,26.5545,-82.1715,1.634,35.87,1111122 
SCCF RECON,ioos:station:SCCF:51:1,2009-03-03T17:00:00Z,26.5545,-82.1715,1.686,35.83,1111122 
SCCF RECON,ioos:station:SCCF:51:1,2009-03-03T18:00:00Z,26.5545,-82.1715,1.736,35.8,1111122 
SCCF RECON,ioos:station:SCCF:51:1,2009-03-03T19:00:00Z,26.5545,-82.1715,1.799,35.72,1111122 
SCCF RECON,ioos:station:SCCF:51:1,2009-03-03T20:00:00Z,26.5545,-82.1715,1.85,35.7,1111122 
SCCF RECON,ioos:station:SCCF:51:1,2009-03-03T21:00:00Z,26.5545,-82.1715,1.893,35.76,1111122 
SCCF RECON,ioos:station:SCCF:51:1,2009-03-03T22:00:00Z,26.5545,-82.1715,1.916,35.75,1111122 
SCCF RECON,ioos:station:SCCF:51:1,2009-03-03T23:00:00Z,26.5545,-82.1715,1.893,35.71,1111122 
SCCF RECON,ioos:station:SCCF:51:1,2009-03-04T00:00:00Z,26.5545,-82.1715,1.825,35.74,1111122 
SCCF RECON,ioos:station:SCCF:51:1,2009-03-04T01:00:00Z,26.5545,-82.1715,1.746,35.8,1111122 
SCCF RECON,ioos:station:SCCF:51:1,2009-03-04T02:00:00Z,26.5545,-82.1715,1.647,35.83,1111122 
SCCF RECON,ioos:station:SCCF:51:1,2009-03-04T03:00:00Z,26.5545,-82.1715,1.546,35.83,1111122 
SCCF RECON,ioos:station:SCCF:51:1,2009-03-04T04:00:00Z,26.5545,-82.1715,1.442,35.79,1111122 
SCCF RECON,ioos:station:SCCF:51:1,2009-03-04T05:00:00Z,26.5545,-82.1715,1.345,35.81,1111122 
SCCF RECON,ioos:station:SCCF:51:1,2009-03-04T06:00:00Z,26.5545,-82.1715,1.272,35.86,1111122 
SCCF RECON,ioos:station:SCCF:51:1,2009-03-04T07:00:00Z,26.5545,-82.1715,1.253,35.88,1111122 
SCCF RECON,ioos:station:SCCF:51:1,2009-03-04T08:00:00Z,26.5545,-82.1715,1.298,35.88,1111122 
SCCF RECON,ioos:station:SCCF:51:1,2009-03-04T09:00:00Z,26.5545,-82.1715,1.346,35.9,1111122 
SCCF RECON,ioos:station:SCCF:51:1,2009-03-04T10:00:00Z,26.5545,-82.1715,1.421,36.01,1111122 
SCCF RECON,ioos:station:SCCF:51:1,2009-03-04T11:00:00Z,26.5545,-82.1715,1.481,35.99,1111122 
SCCF RECON,ioos:station:SCCF:51:1,2009-03-04T12:00:00Z,26.5545,-82.1715,1.532,35.91,1111122 
SCCF RECON,ioos:station:SCCF:51:1,2009-03-04T13:00:00Z,26.5545,-82.1715,1.582,35.87,1111122 
SCCF RECON,ioos:station:SCCF:51:1,2009-03-04T14:00:00Z,26.5545,-82.1715,1.644,35.84,1111122 
SCCF RECON,ioos:station:SCCF:51:1,2009-03-04T15:00:00Z,26.5545,-82.1715,1.684,35.85,1111122 
SCCF RECON,ioos:station:SCCF:51:1,2009-03-04T16:00:00Z,26.5545,-82.1715,1.71,35.81,1111122 
SCCF RECON,ioos:station:SCCF:51:1,2009-03-04T17:00:00Z,26.5545,-82.1715,1.728,35.76,1111122 
SCCF RECON,ioos:station:SCCF:51:1,2009-03-04T18:00:00Z,26.5545,-82.1715,1.774,35.73,1111122 
SCCF RECON,ioos:station:SCCF:51:1,2009-03-04T19:00:00Z,26.5545,-82.1715,1.823,35.77,1111122 
SCCF RECON,ioos:station:SCCF:51:1,2009-03-04T20:00:00Z,26.5545,-82.1715,1.888,35.74,1111122 
SCCF RECON,ioos:station:SCCF:51:1,2009-03-04T21:00:00Z,26.5545,-82.1715,1.945,35.78,1111122 
SCCF RECON,ioos:station:SCCF:51:1,2009-03-04T22:00:00Z,26.5545,-82.1715,1.99,35.79,1111122 
SCCF RECON,ioos:station:SCCF:51:1,2009-03-04T23:00:00Z,26.5545,-82.1715,2.007,35.8,1111122 
SCCF RECON,ioos:station:SCCF:51:1,2009-03-05T00:00:00Z,26.5545,-82.1715,1.965,35.8,1111122 
SCCF RECON,ioos:station:SCCF:51:1,2009-03-05T01:00:00Z,26.5545,-82.1715,1.902,35.8,1111122 
SCCF RECON,ioos:station:SCCF:51:1,2009-03-05T02:00:00Z,26.5545,-82.1715,1.807,35.8,1111122 
SCCF RECON,ioos:station:SCCF:51:1,2009-03-05T03:00:00Z,26.5545,-82.1715,1.7,35.82,1111122 
SCCF RECON,ioos:station:SCCF:51:1,2009-03-05T04:00:00Z,26.5545,-82.1715,1.608,35.84,1111122 
SCCF RECON,ioos:station:SCCF:51:1,2009-03-05T05:00:00Z,26.5545,-82.1715,1.519,35.85,1111122 
SCCF RECON,ioos:station:SCCF:51:1,2009-03-05T06:00:00Z,26.5545,-82.1715,1.43,35.86,1111122 
SCCF RECON,ioos:station:SCCF:51:1,2009-03-05T07:00:00Z,26.5545,-82.1715,1.346,35.86,1111122 
SCCF RECON,ioos:station:SCCF:51:1,2009-03-05T08:00:00Z,26.5545,-82.1715,1.302,35.86,1111122 
SCCF RECON,ioos:station:SCCF:51:1,2009-03-05T09:00:00Z,26.5545,-82.1715,1.327,35.87,1111122 
SCCF RECON,ioos:station:SCCF:51:1,2009-03-05T10:00:00Z,26.5545,-82.1715,1.415,35.86,1111122 
SCCF RECON,ioos:station:SCCF:51:1,2009-03-05T11:00:00Z,26.5545,-82.1715,1.524,35.88,1111122 
SCCF RECON,ioos:station:SCCF:51:1,2009-03-05T12:00:00Z,26.5545,-82.1715,1.63,35.79,1111122 
SCCF RECON,ioos:station:SCCF:51:1,2009-03-05T13:00:00Z,26.5545,-82.1715,1.72,35.78,1111122 
SCCF RECON,ioos:station:SCCF:51:1,2009-03-05T14:00:00Z,26.5545,-82.1715,1.793,35.76,1111122 
SCCF RECON,ioos:station:SCCF:51:1,2009-03-05T15:00:00Z,26.5545,-82.1715,1.821,35.8,1111122 
SCCF RECON,ioos:station:SCCF:51:1,2009-03-05T16:00:00Z,26.5545,-82.1715,1.809,35.72,1111122 
SCCF RECON,ioos:station:SCCF:51:1,2009-03-05T17:00:00Z,26.5545,-82.1715,1.794,35.84,1111122 
SCCF RECON,ioos:station:SCCF:51:1,2009-03-05T18:00:00Z,26.5545,-82.1715,1.797,35.83,1111122 
SCCF RECON,ioos:station:SCCF:51:1,2009-03-05T19:00:00Z,26.5545,-82.1715,1.827,35.78,1111122 
SCCF RECON,ioos:station:SCCF:51:1,2009-03-05T20:00:00Z,26.5545,-82.1715,1.885,35.74,1111122 
SCCF RECON,ioos:station:SCCF:51:1,2009-03-05T21:00:00Z,26.5545,-82.1715,1.961,35.72,1111122 
SCCF RECON,ioos:station:SCCF:51:1,2009-03-05T22:00:00Z,26.5545,-82.1715,2.034,35.77,1111122 
SCCF RECON,ioos:station:SCCF:51:1,2009-03-05T23:00:00Z,26.5545,-82.1715,2.091,35.74,1111122 
SCCF RECON,ioos:station:SCCF:51:1,2009-03-06T00:00:00Z,26.5545,-82.1715,2.103,35.72,1111122 
SCCF RECON,ioos:station:SCCF:51:1,2009-03-06T01:00:00Z,26.5545,-82.1715,2.086,35.76,1111122 
SCCF RECON,ioos:station:SCCF:51:1,2009-03-06T02:00:00Z,26.5545,-82.1715,2.037,35.72,1111122 
SCCF RECON,ioos:station:SCCF:51:1,2009-03-06T03:00:00Z,26.5545,-82.1715,1.966,35.69,1111122 
SCCF RECON,ioos:station:SCCF:51:1,2009-03-06T04:00:00Z,26.5545,-82.1715,1.863,35.78,1111122 
SCCF RECON,ioos:station:SCCF:51:1,2009-03-06T05:00:00Z,26.5545,-82.1715,1.74,35.95,1111122 
SCCF RECON,ioos:station:SCCF:51:1,2009-03-06T06:00:00Z,26.5545,-82.1715,1.615,36.15,1111122 
SCCF RECON,ioos:station:SCCF:51:1,2009-03-06T07:00:00Z,26.5545,-82.1715,1.492,36.29,1111122 
SCCF RECON,ioos:station:SCCF:51:1,2009-03-06T08:00:00Z,26.5545,-82.1715,1.385,36.33,1111122 
SCCF RECON,ioos:station:SCCF:51:1,2009-03-06T09:00:00Z,26.5545,-82.1715,1.314,36.33,1111122 
SCCF RECON,ioos:station:SCCF:51:1,2009-03-06T10:00:00Z,26.5545,-82.1715,1.348,36.21,1111122 
SCCF RECON,ioos:station:SCCF:51:1,2009-03-06T11:00:00Z,26.5545,-82.1715,1.442,36.05,1111122 
SCCF RECON,ioos:station:SCCF:51:1,2009-03-06T12:00:00Z,26.5545,-82.1715,1.558,35.96,1111122 
SCCF RECON,ioos:station:SCCF:51:1,2009-03-06T13:00:00Z,26.5545,-82.1715,1.669,35.85,1111122 
SCCF RECON,ioos:station:SCCF:51:1,2009-03-06T14:00:00Z,26.5545,-82.1715,1.763,35.84,1111122 
SCCF RECON,ioos:station:SCCF:51:1,2009-03-06T15:00:00Z,26.5545,-82.1715,1.833,35.92,1111122 
SCCF RECON,ioos:station:SCCF:51:1,2009-03-06T16:00:00Z,26.5545,-82.1715,1.87,35.92,1111122 
SCCF RECON,ioos:station:SCCF:51:1,2009-03-06T17:00:00Z,26.5545,-82.1715,1.864,35.89,1111122 
SCCF RECON,ioos:station:SCCF:51:1,2009-03-06T18:00:00Z,26.5545,-82.1715,1.828,35.91,1111122 
SCCF RECON,ioos:station:SCCF:51:1,2009-03-06T19:00:00Z,26.5545,-82.1715,1.805,35.96,1111122 
SCCF RECON,ioos:station:SCCF:51:1,2009-03-06T20:00:00Z,26.5545,-82.1715,1.822,35.89,1111122 
SCCF RECON,ioos:station:SCCF:51:1,2009-03-06T21:00:00Z,26.5545,-82.1715,1.875,35.86,1111122 
SCCF RECON,ioos:station:SCCF:51:1,2009-03-06T22:00:00Z,26.5545,-82.1715,1.933,35.85,1111122 
SCCF RECON,ioos:station:SCCF:51:1,2009-03-06T23:00:00Z,26.5545,-82.1715,1.989,35.84,1111122 
SCCF RECON,ioos:station:SCCF:51:1,2009-03-07T00:00:00Z,26.5545,-82.1715,2.031,35.77,1111122 
SCCF RECON,ioos:station:SCCF:51:1,2009-03-07T01:00:00Z,26.5545,-82.1715,2.07,35.71,1111122 
SCCF RECON,ioos:station:SCCF:51:1,2009-03-07T02:00:00Z,26.5545,-82.1715,2.08,35.69,1111122 
SCCF RECON,ioos:station:SCCF:51:1,2009-03-07T03:00:00Z,26.5545,-82.1715,2.05,35.83,1111122 
SCCF RECON,ioos:station:SCCF:51:1,2009-03-07T04:00:00Z,26.5545,-82.1715,1.98,35.88,1111122 
SCCF RECON,ioos:station:SCCF:51:1,2009-03-07T05:00:00Z,26.5545,-82.1715,1.879,35.95,1111122 
SCCF RECON,ioos:station:SCCF:51:1,2009-03-07T06:00:00Z,26.5545,-82.1715,1.75,35.98,1111122 
SCCF RECON,ioos:station:SCCF:51:1,2009-03-07T07:00:00Z,26.5545,-82.1715,1.613,36.1,1111122 
SCCF RECON,ioos:station:SCCF:51:1,2009-03-07T08:00:00Z,26.5545,-82.1715,1.481,36.1,1111122 
SCCF RECON,ioos:station:SCCF:51:1,2009-03-07T09:00:00Z,26.5545,-82.1715,1.373,36.21,1111122 
SCCF RECON,ioos:station:SCCF:51:1,2009-03-07T10:00:00Z,26.5545,-82.1715,1.309,36.22,1111122 
SCCF RECON,ioos:station:SCCF:51:1,2009-03-07T11:00:00Z,26.5545,-82.1715,1.337,36.2,1111122 
SCCF RECON,ioos:station:SCCF:51:1,2009-03-07T12:00:00Z,26.5545,-82.1715,1.434,36.17,1111122 
SCCF RECON,ioos:station:SCCF:51:1,2009-03-07T13:00:00Z,26.5545,-82.1715,1.568,36.09,1111122 
SCCF RECON,ioos:station:SCCF:51:1,2009-03-07T14:00:00Z,26.5545,-82.1715,1.692,35.86,1111122 
SCCF RECON,ioos:station:SCCF:51:1,2009-03-07T15:00:00Z,26.5545,-82.1715,1.791,35.88,1111122 
SCCF RECON,ioos:station:SCCF:51:1,2009-03-07T16:00:00Z,26.5545,-82.1715,1.858,35.89,1111122 
SCCF RECON,ioos:station:SCCF:51:1,2009-03-07T17:00:00Z,26.5545,-82.1715,1.875,35.89,1111122 
SCCF RECON,ioos:station:SCCF:51:1,2009-03-07T18:00:00Z,26.5545,-82.1715,1.845,35.83,1111122 
SCCF RECON,ioos:station:SCCF:51:1,2009-03-07T19:00:00Z,26.5545,-82.1715,1.797,35.98,1111122 
SCCF RECON,ioos:station:SCCF:51:1,2009-03-07T20:00:00Z,26.5545,-82.1715,1.76,36.04,1111122 
SCCF RECON,ioos:station:SCCF:51:1,2009-03-07T21:00:00Z,26.5545,-82.1715,1.777,36.01,1111122 
SCCF RECON,ioos:station:SCCF:51:1,2009-03-07T22:00:00Z,26.5545,-82.1715,1.828,35.89,1111122 
SCCF RECON,ioos:station:SCCF:51:1,2009-03-07T23:00:00Z,26.5545,-82.1715,1.893,35.88,1111122 
SCCF RECON,ioos:station:SCCF:51:1,2009-03-08T00:00:00Z,26.5545,-82.1715,1.97,35.85,1111122 
SCCF RECON,ioos:station:SCCF:51:1,2009-03-08T01:00:00Z,26.5545,-82.1715,2.04,35.74,1111122 
SCCF RECON,ioos:station:SCCF:51:1,2009-03-08T02:00:00Z,26.5545,-82.1715,2.11,35.73,1111122 
SCCF RECON,ioos:station:SCCF:51:1,2009-03-08T03:00:00Z,26.5545,-82.1715,2.152,35.72,1111122 
SCCF RECON,ioos:station:SCCF:51:1,2009-03-08T04:00:00Z,26.5545,-82.1715,2.13,35.72,1111122 
SCCF RECON,ioos:station:SCCF:51:1,2009-03-08T05:00:00Z,26.5545,-82.1715,2.046,35.86,1111122 
SCCF RECON,ioos:station:SCCF:51:1,2009-03-08T06:00:00Z,26.5545,-82.1715,1.926,35.93,1111122 
SCCF RECON,ioos:station:SCCF:51:1,2009-03-08T07:00:00Z,26.5545,-82.1715,1.778,36.0,1111122 
SCCF RECON,ioos:station:SCCF:51:1,2009-03-08T08:00:00Z,26.5545,-82.1715,1.632,36.07,1111122 
SCCF RECON,ioos:station:SCCF:51:1,2009-03-08T09:00:00Z,26.5545,-82.1715,1.502,36.13,1111122 
SCCF RECON,ioos:station:SCCF:51:1,2009-03-08T10:00:00Z,26.5545,-82.1715,1.4,36.25,1111122 
SCCF RECON,ioos:station:SCCF:51:1,2009-03-08T11:00:00Z,26.5545,-82.1715,1.349,36.27,1111122 
SCCF RECON,ioos:station:SCCF:51:1,2009-03-08T12:00:00Z,26.5545,-82.1715,1.39,36.24,1111122 
SCCF RECON,ioos:station:SCCF:51:1,2009-03-08T13:00:00Z,26.5545,-82.1715,1.499,36.15,1111122 
SCCF RECON,ioos:station:SCCF:51:1,2009-03-08T14:00:00Z,26.5545,-82.1715,1.639,36.03,1111122 
SCCF RECON,ioos:station:SCCF:51:1,2009-03-08T15:00:00Z,26.5545,-82.1715,1.763,35.83,1111122 
SCCF RECON,ioos:station:SCCF:51:1,2009-03-08T16:00:00Z,26.5545,-82.1715,1.846,35.86,1111122 
SCCF RECON,ioos:station:SCCF:51:1,2009-03-08T17:00:00Z,26.5545,-82.1715,1.899,35.98,1111122 
SCCF RECON,ioos:station:SCCF:51:1,2009-03-08T18:00:00Z,26.5545,-82.1715,1.885,35.85,1111122 
SCCF RECON,ioos:station:SCCF:51:1,2009-03-08T19:00:00Z,26.5545,-82.1715,1.825,36.02,1111122 
SCCF RECON,ioos:station:SCCF:51:1,2009-03-08T20:00:00Z,26.5545,-82.1715,1.757,36.1,1111122 
SCCF RECON,ioos:station:SCCF:51:1,2009-03-08T21:00:00Z,26.5545,-82.1715,1.691,36.11,1111122 
SCCF RECON,ioos:station:SCCF:51:1,2009-03-08T22:00:00Z,26.5545,-82.1715,1.671,36.15,1111122 
SCCF RECON,ioos:station:SCCF:51:1,2009-03-08T23:00:00Z,26.5545,-82.1715,1.727,36.08,1111122 
SCCF RECON,ioos:station:SCCF:51:1,2009-03-09T00:00:00Z,26.5545,-82.1715,1.8,35.97,1111122 
SCCF RECON,ioos:station:SCCF:51:1,2009-03-09T01:00:00Z,26.5545,-82.1715,1.903,35.87,1111122 
SCCF RECON,ioos:station:SCCF:51:1,2009-03-09T02:00:00Z,26.5545,-82.1715,2.01,35.77,1111122 
SCCF RECON,ioos:station:SCCF:51:1,2009-03-09T03:00:00Z,26.5545,-82.1715,2.1,35.75,1111122 
SCCF RECON,ioos:station:SCCF:51:1,2009-03-09T04:00:00Z,26.5545,-82.1715,2.151,35.74,1111122 
SCCF RECON,ioos:station:SCCF:51:1,2009-03-09T05:00:00Z,26.5545,-82.1715,2.13,35.76,1111122 
SCCF RECON,ioos:station:SCCF:51:1,2009-03-09T06:00:00Z,26.5545,-82.1715,2.04,35.84,1111122 
SCCF RECON,ioos:station:SCCF:51:1,2009-03-09T07:00:00Z,26.5545,-82.1715,1.912,35.94,1111122 
SCCF RECON,ioos:station:SCCF:51:1,2009-03-09T08:00:00Z,26.5545,-82.1715,1.77,36.11,1111122 
SCCF RECON,ioos:station:SCCF:51:1,2009-03-09T09:00:00Z,26.5545,-82.1715,1.627,36.19,1111122 
SCCF RECON,ioos:station:SCCF:51:1,2009-03-09T10:00:00Z,26.5545,-82.1715,1.502,36.15,1111122 
SCCF RECON,ioos:station:SCCF:51:1,2009-03-09T11:00:00Z,26.5545,-82.1715,1.41,36.21,1111122 
SCCF RECON,ioos:station:SCCF:51:1,2009-03-09T12:00:00Z,26.5545,-82.1715,1.39,36.31,1111122 
SCCF RECON,ioos:station:SCCF:51:1,2009-03-09T13:00:00Z,26.5545,-82.1715,1.464,36.28,1111122 
SCCF RECON,ioos:station:SCCF:51:1,2009-03-09T14:00:00Z,26.5545,-82.1715,1.593,36.26,1111122 
SCCF RECON,ioos:station:SCCF:51:1,2009-03-09T15:00:00Z,26.5545,-82.1715,1.74,35.88,1111122 
SCCF RECON,ioos:station:SCCF:51:1,2009-03-09T16:00:00Z,26.5545,-82.1715,1.867,35.84,1111122 
SCCF RECON,ioos:station:SCCF:51:1,2009-03-09T17:00:00Z,26.5545,-82.1715,1.94,35.94,1111122 
SCCF RECON,ioos:station:SCCF:51:1,2009-03-09T18:00:00Z,26.5545,-82.1715,1.951,35.93,1111122 
SCCF RECON,ioos:station:SCCF:51:1,2009-03-09T19:00:00Z,26.5545,-82.1715,1.895,35.98,1111122 
SCCF RECON,ioos:station:SCCF:51:1,2009-03-09T20:00:00Z,26.5545,-82.1715,1.803,36.15,1111122 
SCCF RECON,ioos:station:SCCF:51:1,2009-03-09T21:00:00Z,26.5545,-82.1715,1.698,36.22,1111122 
SCCF RECON,ioos:station:SCCF:51:1,2009-03-09T22:00:00Z,26.5545,-82.1715,1.621,36.23,1111122 
SCCF RECON,ioos:station:SCCF:51:1,2009-03-09T23:00:00Z,26.5545,-82.1715,1.6,36.16,1111122 
SCCF RECON,ioos:station:SCCF:51:1,2009-03-10T00:00:00Z,26.5545,-82.1715,1.65,36.18,1111122 
SCCF RECON,ioos:station:SCCF:51:1,2009-03-10T01:00:00Z,26.5545,-82.1715,1.73,36.13,1111122 
SCCF RECON,ioos:station:SCCF:51:1,2009-03-10T02:00:00Z,26.5545,-82.1715,1.85,35.92,1111122 
SCCF RECON,ioos:station:SCCF:51:1,2009-03-10T03:00:00Z,26.5545,-82.1715,1.988,35.86,1111122 
SCCF RECON,ioos:station:SCCF:51:1,2009-03-10T04:00:00Z,26.5545,-82.1715,2.09,35.85,1111122 
SCCF RECON,ioos:station:SCCF:51:1,2009-03-10T05:00:00Z,26.5545,-82.1715,2.131,35.85,1111122 
SCCF RECON,ioos:station:SCCF:51:1,2009-03-10T06:00:00Z,26.5545,-82.1715,2.088,35.85,1111122 
SCCF RECON,ioos:station:SCCF:51:1,2009-03-10T07:00:00Z,26.5545,-82.1715,1.985,35.86,1111122 
SCCF RECON,ioos:station:SCCF:51:1,2009-03-10T08:00:00Z,26.5545,-82.1715,1.85,36.12,1111122 
SCCF RECON,ioos:station:SCCF:51:1,2009-03-10T09:00:00Z,26.5545,-82.1715,1.71,36.23,1111122 
SCCF RECON,ioos:station:SCCF:51:1,2009-03-10T10:00:00Z,26.5545,-82.1715,1.58,36.23,1111122 
SCCF RECON,ioos:station:SCCF:51:1,2009-03-10T11:00:00Z,26.5545,-82.1715,1.48,36.18,1111122 
SCCF RECON,ioos:station:SCCF:51:1,2009-03-10T12:00:00Z,26.5545,-82.1715,1.41,36.18,1111122 
SCCF RECON,ioos:station:SCCF:51:1,2009-03-10T13:00:00Z,26.5545,-82.1715,1.441,36.21,1111122 
SCCF RECON,ioos:station:SCCF:51:1,2009-03-10T14:00:00Z,26.5545,-82.1715,1.54,36.27,1111122 
SCCF RECON,ioos:station:SCCF:51:1,2009-03-10T15:00:00Z,26.5545,-82.1715,1.682,36.06,1111122 
SCCF RECON,ioos:station:SCCF:51:1,2009-03-10T16:00:00Z,26.5545,-82.1715,1.828,35.89,1111122 
SCCF RECON,ioos:station:SCCF:51:1,2009-03-10T17:00:00Z,26.5545,-82.1715,1.923,35.88,1111122 
SCCF RECON,ioos:station:SCCF:51:1,2009-03-10T18:00:00Z,26.5545,-82.1715,1.952,35.91,1111122 
SCCF RECON,ioos:station:SCCF:51:1,2009-03-10T19:00:00Z,26.5545,-82.1715,1.9,35.89,1111122 
SCCF RECON,ioos:station:SCCF:51:1,2009-03-10T20:00:00Z,26.5545,-82.1715,1.819,36.15,1111122 
SCCF RECON,ioos:station:SCCF:51:1,2009-03-10T21:00:00Z,26.5545,-82.1715,1.71,36.19,1111122 
SCCF RECON,ioos:station:SCCF:51:1,2009-03-10T22:00:00Z,26.5545,-82.1715,1.604,36.18,1111122 
SCCF RECON,ioos:station:SCCF:51:1,2009-03-10T23:00:00Z,26.5545,-82.1715,1.529,36.18,1111122 
SCCF RECON,ioos:station:SCCF:51:1,2009-03-11T00:00:00Z,26.5545,-82.1715,1.519,36.13,1111122 
SCCF RECON,ioos:station:SCCF:51:1,2009-03-11T01:00:00Z,26.5545,-82.1715,1.58,36.18,1111122 
SCCF RECON,ioos:station:SCCF:51:1,2009-03-11T02:00:00Z,26.5545,-82.1715,1.68,36.13,1111122 
SCCF RECON,ioos:station:SCCF:51:1,2009-03-11T03:00:00Z,26.5545,-82.1715,1.82,35.9,1111122 
SCCF RECON,ioos:station:SCCF:51:1,2009-03-11T04:00:00Z,26.5545,-82.1715,1.97,35.84,1111122 
SCCF RECON,ioos:station:SCCF:51:1,2009-03-11T05:00:00Z,26.5545,-82.1715,2.07,35.85,1111122 
SCCF RECON,ioos:station:SCCF:51:1,2009-03-11T06:00:00Z,26.5545,-82.1715,2.11,35.85,1111122 
SCCF RECON,ioos:station:SCCF:51:1,2009-03-11T07:00:00Z,26.5545,-82.1715,2.07,35.84,1111122 
SCCF RECON,ioos:station:SCCF:51:1,2009-03-11T08:00:00Z,26.5545,-82.1715,1.964,35.93,1111122 
SCCF RECON,ioos:station:SCCF:51:1,2009-03-11T09:00:00Z,26.5545,-82.1715,1.837,36.1,1111122 
SCCF RECON,ioos:station:SCCF:51:1,2009-03-11T10:00:00Z,26.5545,-82.1715,1.702,36.15,1111122 
SCCF RECON,ioos:station:SCCF:51:1,2009-03-11T11:00:00Z,26.5545,-82.1715,1.6,36.04,1111122 
SCCF RECON,ioos:station:SCCF:51:1,2009-03-11T12:00:00Z,26.5545,-82.1715,1.533,36.04,1111122 
SCCF RECON,ioos:station:SCCF:51:1,2009-03-11T13:00:00Z,26.5545,-82.1715,1.538,36.07,1111122 
SCCF RECON,ioos:station:SCCF:51:1,2009-03-11T14:00:00Z,26.5545,-82.1715,1.615,36.17,1111122 
SCCF RECON,ioos:station:SCCF:51:1,2009-03-11T15:00:00Z,26.5545,-82.1715,1.733,36.12,1111122 
SCCF RECON,ioos:station:SCCF:51:1,2009-03-11T16:00:00Z,26.5545,-82.1715,1.882,35.88,1111122 